{"data":{"norad_id":53430,"epoch":"2026-09-19T09:37:57.612864Z","epoch_age_seconds":170320,"freshness":"FRESH","line1":"1 53430U 22097AU  26262.40136126  .00000057  00000+0  12539-4 0  9991","line2":"2 53430  53.1598 298.7126 0001174  82.5770 277.5367 15.35401022228221","mean_motion":15.35401022,"eccentricity":0.0001174,"inclination_deg":53.1598,"raan_deg":298.7126,"arg_perigee_deg":82.577,"mean_anomaly_deg":277.5367,"bstar":1.2539e-5,"rev_number":22822,"period_min":93.786572977805,"perigee_km":458.92684290015,"apogee_km":460.53237397981,"semimajor_km":6837.86660844,"source":"CELESTRAK","updated_at":"2026-09-20T09:00:40.231362Z"}}